User: anonymous   Login
Location: Fouquenies
(49.4624°N, 2.0492°E)
Time: 01:21:43
(UTC+00:00)
Language:

SKYMED 2 - Orbit

View from above orbital plane
View from above orbital plane
View from above satellite
View from above satellite

Ground track
Ground track

The orbit data is extracted from the following two-line orbital elements,

1 32376U 07059A   24106.58744108  .00000034  00000-0  10872-4 0  9991
2 32376  97.8868 290.6490 0001481  90.3593 269.7790 14.82148721884594
Epoch (UTC): 15 April 2024 14:05:54
Eccentricity: 0.0001481
inclination: 97.8868°
perigee height: 621 km
apogee height: 623 km
right ascension of ascending node: 290.6490°
argument of perigee: 90.3593°
revolutions per day: 14.82148721
mean anomaly at epoch: 269.7790°
orbit number at epoch: 88459

The dashed part of the orbit path shows where the satellite is in the earth's shadow,  

DLR